User: anonymous   Login
Location: Roanoke
(37.2710°N, 79.9420°W)
Time: 15:06:33
(UTC-05:00)
Language:

FENGYUN 3A - Orbit

View from above orbital plane
View from above orbital plane
View from above satellite
View from above satellite

Ground track
Ground track

The orbit data is extracted from the following two-line orbital elements,

1 32958U 08026A   17018.51558774  .00000006  00000-0  22241-4 0  9993
2 32958  98.4260  54.5455 0009713   2.3640 357.7581 14.19646758448105
Epoch (UTC): 18 January 2017 12:22:26
Eccentricity: 0.0009713
inclination: 98.4260°
perigee height: 819 km
apogee height: 833 km
right ascension of ascending node: 54.5455°
argument of perigee: 2.3640°
revolutions per day: 14.19646758
mean anomaly at epoch: 357.7581°
orbit number at epoch: 44810

The dashed part of the orbit path shows where the satellite is in the earth's shadow,  

DLR